Regional Weather Roundup
Issued by NWS Spokane, WA

Home | Current Version | Previous Version | Text Only | Print | Product List | Glossary On
Versions: 1 2 3 4 5 6 7 8 9 10 11 12 13 14 15 16 17 18 19 20 21 22 23 24 25 26 27 28 29 30 31 32 33 34 35 36 37 38 39 40 41 42 43 44 45 46 47 48 49 50
000
NZUS01 KOTX 010010
RWROTX
EASTERN WASHINGTON/NORTHERN IDAHO ROUNDUP
NATIONAL WEATHER SERVICE, SPOKANE WA
500 PM PDT SAT APR 30 2016

Note: "fair" indicated few or no clouds below 12,000 feet with no
significant weather and/or obstructions to visibility.

...NORTHEAST WASHINGTON AND NORTHERN IDAHO PANHANDLE...

CITY           SKY/WX    TMP DP  RH WIND       PRES   REMARKS
SPOKANE INTL   MOSUNNY   63  39  41 N14       30.22S
SPOKANE DOWNTO MOSUNNY   64  41  42 VRB6      30.22S
COEUR D ALENE  PTSUNNY   55  43  62 S8        30.20R
DEER PARK      MOSUNNY   64  44  48 NW14      30.22S
SANDPOINT      MOSUNNY   63  39  42 N9        30.21S

...SOUTHEAST WASHINGTON AND SOUTHERN IDAHO PANHANDLE...

CITY           SKY/WX    TMP DP  RH WIND       PRES   REMARKS
WALLA WALLA    SUNNY     64  45  49 E5        30.20F
PULLMAN/MOSCOW LGT RAIN  57  44  62 NW5       30.24R
LEWISTON       PTSUNNY   64  43  46 N3        30.21S
LOWELL           N/A     63  44  50 S8G18     30.15F

...COLUMBIA BASIN...

CITY           SKY/WX    TMP DP  RH WIND       PRES   REMARKS
EPHRATA        SUNNY     70  40  33 E10G17    30.20S
MOSES LAKE     MOSUNNY   70  43  37 E14       30.21S
TRI CITIES     MOSUNNY   71  44  37 NE10      30.20S
HERMISTON      PTSUNNY   74  39  28 N9        30.17S
PENDLETON      PTSUNNY   67  40  37 E8        30.19S

...EAST SLOPES CASCADES...

CITY           SKY/WX    TMP DP  RH WIND       PRES   REMARKS
THE DALLES     SUNNY     73  42  32 N14       30.17F
YAKIMA         SUNNY     75  29  18 VRB7      30.18F
ELLENSBURG     SUNNY     73  32  22 S5        30.19F
STAMPEDE PASS  SUNNY     52  36  54 VRB7      30.30R
WENATCHEE      SUNNY     73  23  15 SW5       30.18F
OMAK           SUNNY     73  26  17 N10       30.20S

...SOUTHERN BRITISH COLUMBIA...

CITY           SKY/WX    TMP DP  RH WIND       PRES   REMARKS
PENTICTON      MOSUNNY   72  36  26 N8        30.22S
CRANBROOK      PTSUNNY   61  36  39 W9        30.25R

...WESTERN MONTANA...

CITY           SKY/WX    TMP DP  RH WIND       PRES   REMARKS
MISSOULA       LGT RAIN  50  42  74 S5        30.23S

...NEIGHBORING CITIES...

CITY           SKY/WX    TMP DP  RH WIND       PRES   REMARKS
SEATTLE        MOSUNNY   67  41  38 N9        30.32F
CALGARY        PTSUNNY   54  30  40 SW2       30.28S



USA.gov is the U.S. government's official web portal to all federal, state and local government web resources and services.